Lexington Weather

Lexington, Massachusetts, USA

39°F
1/28/2023 8:32pm 
  • Lexington Conditions: Clear
  • Temperature: 39.0°F / 3.9°CColder 1.6°F than last hour.
  • Dew Point: 26.8°FIncreased 1.1°Fsince last hour.
  • Relative Humidity: 61%Increased 6.0% since last hour.
  • Wind: Calm, 10-min avg: Calm, gust: None
  • Barometer: 30.23 inRising 0.02  inHg/hr Rising Slowly
  • Visibility: 10 miles
  • Rain Today: 0.00 in
  •   

Regional Weather Roundup
for Boston, MA

        
000
ASUS41 KBOX 282110
RWRBOX

REGIONAL WEATHER ROUNDUP
NATIONAL WEATHER SERVICE BOSTON/NORTON MA
400 PM EST SAT JAN 28 2023

NOTE:  "FAIR" INDICATES FEW OR NO CLOUDS BELOW 12,000 FEET WITH NO 
SIGNIFICANT WEATHER AND/OR OBSTRUCTIONS TO VISIBILITY.

MAZALL-282200-
EASTERN MASSACHUSETTS
  
CITY           SKY/WX    TMP DP  RH WIND       PRES   REMARKS
BOSTON         CLOUDY    48  23  37 SW12      30.18R                  
BEVERLY        CLEAR     46  22  38 W9G18     30.16R                  
LAWRENCE       CLEAR     46  22  38 W10       30.18R                  
BEDFORD        CLEAR     50  21  32 W9G17     30.16R                  
NORWOOD        CLEAR     50  24  36 W8        30.18R                  
MARSHFIELD     CLEAR     50  21  32 VRB7G13   30.17R                  
PLYMOUTH       CLEAR     49  24  37 W8        30.17R                  
TAUNTON          N/A    N/A N/A N/A MISG      30.18R                  
NEW BEDFORD    CLEAR     50  26  39 W8        30.18R                  
$$

MAZALL-282200-
CAPE COD AND THE ISLANDS
  
CITY           SKY/WX    TMP DP  RH WIND       PRES   REMARKS
FALMOUTH       CLEAR     45  28  53 W18       30.18R                  
HYANNIS        CLEAR     44  32  62 SW8       30.17R                  
CHATHAM        CLEAR     46  32  58 SW8       30.19S                  
PROVINCETOWN   CLEAR     46  32  58 W9        30.19R                  
NANTUCKET      CLEAR     45  39  79 SW13      30.23R                  
MARTHAS VNYRD  CLEAR     47  30  51 W10G20    30.20S                  
$$
 
MAZALL-282200-
CENTRAL AND WESTERN MASSACHUSETTS
  
CITY           SKY/WX    TMP DP  RH WIND       PRES   REMARKS
WORCESTER      CLEAR     45  20  36 W17       30.15R                  
FITCHBURG      CLEAR     45  21  38 SW7       30.17R                  
ORANGE         CLEAR     43  22  43 SW9       30.18R                  
SPRINGFIELD    MOCLDY    47  22  37 SW10      30.17R                  
WESTFIELD      CLEAR     46  22  38 SW9       30.19R                  
NORTH ADAMS    CLEAR     43  22  43 W7        30.17R                  
PITTSFIELD     CLEAR     42  21  43 W13       30.16R                  
$$
 
RIZALL-282200-
RHODE ISLAND
  
CITY           SKY/WX    TMP DP  RH WIND       PRES   REMARKS
PROVIDENCE     MOCLDY    49  22  34 W13       30.19R                  
NEWPORT        PTCLDY    47  27  45 VRB6      30.19R                  
BLOCK ISLAND   PTCLDY    45  30  55 W12G20    30.23R                  
SMITHFIELD     CLEAR     47  22  37 W8        30.18R                  
WESTERLY       PTCLDY    47  29  49 W10G17    30.22R                  
$$
 
CTZALL-282200-
CONNECTICUT
  
CITY           SKY/WX    TMP DP  RH WIND       PRES   REMARKS
BRADLEY INTL   MOCLDY    48  20  32 W10       30.20R                  
HARTFORD       CLOUDY    50  21  32 W12       30.21R                  
BRIDGEPORT     MOCLDY    47  33  58 SW8       30.22R                  
DANBURY        PTCLDY    49  23  36 W9        30.22R                  
GROTON         CLOUDY    48  28  46 W10       30.22R                  
NEW HAVEN      PTCLDY    48  34  58 SW7       30.22R                  
CHESTER        FAIR      46  25  42 VRB7      30.21R                  
MERIDEN        PTCLDY    50  20  30 CALM      30.21R                  
WILLIMANTIC    PTCLDY    48  23  37 SW8       30.20R                  
OXFORD         PTCLDY    46  22  38 VRB6      30.21R                  
$$

MEZ002-015-021-024-NHZ003-005-008-011-012-014-VTZ005-008-282200-
NORTHERN NEW ENGLAND
  
CITY           SKY/WX    TMP DP  RH WIND       PRES   REMARKS
PORTLAND ME    MOCLDY    44  22  41 W8        30.12R                  
BANGOR ME      PTCLDY    40  25  55 SW7       30.08R                  
CONCORD NH     PTCLDY    43  21  41 W14G21    30.15R                  
MANCHESTER NH  MOCLDY    46  21  37 SW7       30.15R                  
NASHUA NH      PTCLDY    45  22  40 W6G14     30.17R                  
PORTSMOUTH NH  MOCLDY    46  21  37 SW8       30.15R                  
JAFFREY NH     CLEAR     42  22  44 VRB7      30.15R                  
KEENE NH       CLEAR     43  22  43 W5        30.17R                  
BURLINGTON VT  MOCLDY    39  21  48 W12       30.16R WCI  32          
MT. WASHINGTON BLWGSNOW  14  14 100 W56         N/A  VSB 0   WCI -12  
$$

NYZ052-076-282200-
EASTERN NEW YORK
  
CITY           SKY/WX    TMP DP  RH WIND       PRES   REMARKS
ALBANY         MOCLDY    42  26  53 NW8       30.21R                  
NEW YORK CITY  PTSUNNY   52  20  28 W15       30.24R                  
$$
 
ANZALL-282200-
MARINE OBSERVATIONS
  
STATION/POSITION TIME  TEMP    WIND        PRES    VSBY  WAVE
                       AIR SEA DIR/SP/G                  HT/PER
                 (UTC) (F)     (DEG/KT/KT) (MB)    (MI)  (FT/S)
BOSTON BUOY      2040      42                N/A           2/10
BUZZARDS BAY     2000   44     240/ 19/ 20 1022.7R
NANTUCKET SOUND  2050   46 42  240/ 14/ 17 1022.5R         3/ 4
MASS BAY-STELLWA 1904   45 42  260/ 12/ 14 1019.6S  1 7/8  3/ 4
ISLE OF SHOALS   2000   46     260/ 19/ 21 1019.6R
S OF BLOCK IS    2056      44                N/A           7/ 7
$$

......................KEY.........................
  SKY/WX - SKY CONDITION/PRESENT WEATHER
  TMP    - TEMPERATURE IN FAHRENHEIT
  DWPT   - DEWPOINT IN FAHRENHEIT
  RH     - RELATIVE HUMIDITY IN PERCENT
  WIND   - DIRECTION AND SPEED IN MPH
  PRES   - MEAN SEA LEVEL PRESSURE IN INCHES OF HG
  WCI    - WIND CHILL INDEX
  VSB    - VISIBILITY IN MILES
  HX     - HEAT INDEX
  TC     - TEMPERATURE IN CELSIUS
  VRB    - VARIABLE WIND DIRECTION
  N/A    - NOT AVAILABLE
  
      

Other recent Regional Weather Roundups

Sat Jan 28, 8:10pm EST

Sat Jan 28, 7:10pm EST

Sat Jan 28, 6:10pm EST

Sat Jan 28, 5:10pm EST

Sat Jan 28, 3:10pm EST

Sat Jan 28, 2:10pm EST

Sat Jan 28, 1:10pm EST

Sat Jan 28, 12:10pm EST

Sat Jan 28, 11:10am EST

Sat Jan 28, 10:10am EST

Sat Jan 28, 9:10am EST

Sat Jan 28, 8:10am EST

Sat Jan 28, 7:10am EST

Sat Jan 28, 6:10am EST

Sat Jan 28, 5:10am EST

Sat Jan 28, 4:10am EST

Sat Jan 28, 3:10am EST

Sat Jan 28, 2:10am EST

Sat Jan 28, 1:10am EST

Sat Jan 28, 12:10am EST

Fri Jan 27, 11:10pm EST

Fri Jan 27, 10:10pm EST

Fri Jan 27, 9:10pm EST

Fri Jan 27, 8:10pm EST

Fri Jan 27, 7:10pm EST

Fri Jan 27, 6:10pm EST

Fri Jan 27, 5:10pm EST

Fri Jan 27, 4:10pm EST

Fri Jan 27, 3:10pm EST

Fri Jan 27, 2:10pm EST

Fri Jan 27, 1:10pm EST

Fri Jan 27, 12:10pm EST

Fri Jan 27, 11:10am EST

Fri Jan 27, 10:10am EST

Fri Jan 27, 9:10am EST

Fri Jan 27, 8:10am EST

Fri Jan 27, 7:10am EST

Fri Jan 27, 6:10am EST

Fri Jan 27, 5:10am EST

Fri Jan 27, 4:10am EST

Fri Jan 27, 3:10am EST

Fri Jan 27, 2:10am EST

Fri Jan 27, 1:10am EST

Fri Jan 27, 12:10am EST

Thu Jan 26, 11:10pm EST

Thu Jan 26, 10:10pm EST

Thu Jan 26, 9:10pm EST

Thu Jan 26, 8:10pm EST

Thu Jan 26, 7:10pm EST

Thu Jan 26, 6:10pm EST

Thu Jan 26, 5:10pm EST

Thu Jan 26, 4:10pm EST

Thu Jan 26, 3:10pm EST

Thu Jan 26, 2:10pm EST

Thu Jan 26, 1:10pm EST

Thu Jan 26, 12:10pm EST

Thu Jan 26, 11:10am EST

Thu Jan 26, 10:10am EST

Thu Jan 26, 9:10am EST

Thu Jan 26, 8:10am EST

Thu Jan 26, 7:10am EST

Thu Jan 26, 6:10am EST

Thu Jan 26, 5:10am EST

Thu Jan 26, 4:10am EST

Thu Jan 26, 3:10am EST

Thu Jan 26, 2:10am EST

Thu Jan 26, 1:10am EST

Thu Jan 26, 12:10am EST

Wed Jan 25, 11:10pm EST

Wed Jan 25, 10:10pm EST

Wed Jan 25, 9:10pm EST

Wed Jan 25, 8:10pm EST

Wed Jan 25, 7:10pm EST

Wed Jan 25, 6:10pm EST

Wed Jan 25, 5:10pm EST

Wed Jan 25, 4:10pm EST

Wed Jan 25, 3:10pm EST

Wed Jan 25, 2:10pm EST

Wed Jan 25, 1:10pm EST

Wed Jan 25, 12:10pm EST

Wed Jan 25, 11:10am EST

Wed Jan 25, 10:10am EST

Wed Jan 25, 9:10am EST

Wed Jan 25, 8:10am EST

Wed Jan 25, 7:10am EST

Wed Jan 25, 6:10am EST

Wed Jan 25, 5:10am EST

Wed Jan 25, 4:10am EST

Wed Jan 25, 3:10am EST

Wed Jan 25, 2:10am EST

Wed Jan 25, 1:10am EST

Wed Jan 25, 12:10am EST

Tue Jan 24, 11:10pm EST

Tue Jan 24, 10:10pm EST

Tue Jan 24, 9:10pm EST

Tue Jan 24, 8:10pm EST

Tue Jan 24, 7:10pm EST

Tue Jan 24, 6:10pm EST

Tue Jan 24, 5:10pm EST

Tue Jan 24, 4:10pm EST

Tue Jan 24, 3:10pm EST

Tue Jan 24, 2:10pm EST

Tue Jan 24, 1:10pm EST

Tue Jan 24, 12:10pm EST

Tue Jan 24, 11:10am EST

Tue Jan 24, 10:10am EST

Tue Jan 24, 9:10am EST

Tue Jan 24, 8:10am EST

Tue Jan 24, 7:10am EST

Tue Jan 24, 6:10am EST

Tue Jan 24, 5:10am EST

Tue Jan 24, 4:10am EST

Tue Jan 24, 3:10am EST

Tue Jan 24, 2:10am EST

Tue Jan 24, 1:10am EST

Tue Jan 24, 12:10am EST

Mon Jan 23, 11:10pm EST

Mon Jan 23, 10:10pm EST

Mon Jan 23, 9:10pm EST

Mon Jan 23, 8:10pm EST

Mon Jan 23, 7:10pm EST

Mon Jan 23, 6:10pm EST

Mon Jan 23, 5:10pm EST

Mon Jan 23, 4:10pm EST

Mon Jan 23, 3:10pm EST

Mon Jan 23, 2:10pm EST

Mon Jan 23, 1:10pm EST

Mon Jan 23, 12:10pm EST

Mon Jan 23, 11:10am EST

Mon Jan 23, 10:10am EST

Mon Jan 23, 9:10am EST

Mon Jan 23, 8:10am EST

Mon Jan 23, 7:10am EST

Mon Jan 23, 6:10am EST

Mon Jan 23, 5:10am EST

Mon Jan 23, 4:10am EST

Mon Jan 23, 3:10am EST

Mon Jan 23, 2:10am EST

Mon Jan 23, 1:10am EST

Mon Jan 23, 12:10am EST

Sun Jan 22, 11:10pm EST

Sun Jan 22, 10:10pm EST

Sun Jan 22, 9:10pm EST

Sun Jan 22, 8:10pm EST

Sun Jan 22, 7:10pm EST

Sun Jan 22, 6:10pm EST

Sun Jan 22, 5:10pm EST

Sun Jan 22, 4:10pm EST

Sun Jan 22, 3:10pm EST

Sun Jan 22, 2:10pm EST

Sun Jan 22, 1:10pm EST

Sun Jan 22, 12:10pm EST

Sun Jan 22, 11:10am EST

Sun Jan 22, 10:10am EST

Sun Jan 22, 9:10am EST

Sun Jan 22, 8:10am EST

Sun Jan 22, 7:10am EST

Sun Jan 22, 6:10am EST

Sun Jan 22, 5:10am EST

Sun Jan 22, 4:10am EST

Sun Jan 22, 3:10am EST

Sun Jan 22, 2:10am EST

Sun Jan 22, 1:10am EST

Sun Jan 22, 12:10am EST

Sat Jan 21, 11:10pm EST

Sat Jan 21, 10:10pm EST

Sat Jan 21, 9:10pm EST